Regional Weather Roundup
Issued by NWS

Home | Current Version | Previous Version | Text Only | Print | Product List | Glossary On
Versions: 1 2 3 4 5 6 7 8 9 10 11 12 13 14 15 16 17 18 19 20 21 22 23 24 25 26 27 28 29 30 31 32 33 34 35 36 37 38 39 40 41 42 43 44 45 46 47 48 49 50
355
ASUS43 KMPX 222001
RWRMN
WEATHER ROUNDUP FOR MINNESOTA
NATIONAL WEATHER SERVICE TWIN CITIES/CHANHASSEN MN
300 PM CDT SUN APR 22 2018


NOTE: "FAIR" INDICATES FEW OR NO CLOUDS BELOW 12,000 FEET WITH NO
SIGNIFICANT WEATHER AND/OR OBSTRUCTIONS TO VISIBILITY. N/A MEANS
CURRENT SKY AND/OR WEATHER CONDITIONS ARE NOT AVAILABLE.

MNZ060>063-068>070-222100-
   Twin Cities Metro

CITY           SKY/WX    TMP DP  RH WIND       PRES   REMARKS
TWIN CITIES    FAIR      61  33  35 VRB7      30.29F
ST PAUL        FAIR      62  33  33 SE7       30.29F
BLAINE         MOSUNNY   63  30  29 E8        30.28F
LAKEVILLE      FAIR      59  36  41 S3        30.30F
EDEN PRAIRIE   FAIR      61  33  35 VRB6      30.28F
SOUTH ST PAUL  FAIR      62  33  33 SE5       30.28F
LAKE ELMO      FAIR      61  36  39 SE3       30.30F
$$
MNZ001>005-007-008-013>017-022>024-027-028-222100-
   Northwest Minnesota

CITY           SKY/WX    TMP DP  RH WIND       PRES   REMARKS
BEMIDJI        FAIR      62  29  28 SW14G22   30.19F
HALLOCK        FAIR      64  39  39 SW17G24   30.12S
ROSEAU         FAIR      61  39  44 SW20G29   30.15F
WARROAD        FAIR      61  39  44 SW14G24   30.15F
THIEF RVR FALL FAIR      59  41  51 SW24      30.18F
CROOKSTON      FAIR      61  43  51 SW18G28   30.18F
FOSSTON        FAIR      61  36  39 S20G28    30.20F
DETROIT LAKES  FAIR      61  32  33 S16G22    30.24S
MOORHEAD       FAIR      63  37  39 S13       30.22F
PARK RAPIDS    FAIR      62  32  32 S13G25    30.22F
MAHNOMEN       FAIR      61  35  37 SW18G28   30.21S
$$
MNZ006-009>011-018-025>026-222100-
   North Central Minnesota

CITY           SKY/WX    TMP DP  RH WIND       PRES   REMARKS
BAUDETTE       FAIR      63  34  33 SW14G26   30.16F
FLAG ISLAND    FAIR      52  32  46 SW18G26   30.12F
INTL FALLS     FAIR      62  28  27 S13G20    30.18F
WASKISH        CLOUDY    54  32  43 W8        30.20F
BIG FORK       FAIR      61  30  31 S10G17    30.21F
LONGVILLE      FAIR      63  28  27 S10       30.24F
GRAND RAPIDS   FAIR      59  32  36 S12G20    30.25F
CRANE LAKE     FAIR      57  27  30 S9        30.23F
ORR            FAIR      61  23  23 S13       30.20F
COOK           FAIR      61  28  29 SW8       30.25F
WALKER         FAIR      61  29  29 SW15      30.22F
$$
MNZ012-019>021-037-222100-
   Northeast Minnesota

CITY           SKY/WX    TMP DP  RH WIND       PRES   REMARKS
DULUTH         FAIR      60  29  30 W9        30.27F
ELY            FAIR      59  18  20 SW12G18   30.24F
HIBBING        FAIR      59  29  31 VRB7      30.24F
EVELETH        FAIR      60  30  31 W12G17    30.26F
DULUTH HARBOR  FAIR      39  34  81 N7        30.29F
TWO HARBORS    FAIR      63  36  36 S12       30.26F
SILVER BAY     FAIR      59  27  29 S10       30.27S
GRAND MARAIS     N/A     39  33  79 CALM      30.31F
G MARAIS ARPRT FAIR      52  10  19 S8G16     30.29F
$$
MNZ029>031-032-039>041-046>048-054>057-064-222100-
   West Central Minnesota

CITY           SKY/WX    TMP DP  RH WIND       PRES   REMARKS
FERGUS FALLS   FAIR      63  36  36 SW17G23   30.21F
WHEATON        SUNNY     61  36  39 S13G20    30.25F
MORRIS         SUNNY     61  37  41 S13       30.25F
ALEXANDRIA     FAIR      63  34  33 SW16      30.26F
ELBOW LAKE     FAIR      61  37  41 S17       30.25F
WADENA         FAIR      61  34  36 S9G17     30.24F
GLENWOOD       FAIR      61  36  39 S15       30.27F
APPLETON       SUNNY     61  36  39 S9G18     30.26S
BENSON         SUNNY     61  37  41 SW13      30.27F
ORTONVILLE     SUNNY     61  37  41 SE12G17   30.25S
MADISON        SUNNY     61  45  55 S17       30.26F
WILLMAR        FAIR      61  39  44 SE9       30.30F
$$
MNZ033>034-036-042>043-049>051-058-059-222100-
   Central Minnesota

CITY           SKY/WX    TMP DP  RH WIND       PRES   REMARKS
ST CLOUD       FAIR      62  33  33 S9        30.27F
SAUK CENTRE    FAIR      60  34  37 S8        30.26F
PAYNESVILLE    FAIR      60  37  41 SE12      30.28F
AITKIN         FAIR      57  30  35 S10G17    30.26F
PINE RIVER     FAIR      59  34  38 S13       30.27F
BRAINERD       FAIR      62  31  31 S15       30.26F
STAPLES        FAIR      61  30  31 S15       30.25F
LONG PRAIRIE   FAIR      61  34  36 SE12      30.27F
LITTLE FALLS   FAIR      59  23  25 S7        30.27F
LITCHFIELD     FAIR      61  36  39 SE6       30.29F
BUFFALO        FAIR      60  30  31 S5        30.30S
MAPLE LAKE     FAIR      61  37  40 SE5       30.30S
HUTCHINSON     FAIR      59  39  47 SE7       30.31S
$$
MNZ037-044-045-052-053-222100-
   East Central Minnesota

CITY           SKY/WX    TMP DP  RH WIND       PRES   REMARKS
PRINCETON      FAIR      64  30  27 SE5       30.28F
MORA           FAIR      57  32  38 CALM      30.30F
CAMBRIDGE      FAIR      63  39  42 S8        30.28F
RUSH CITY      FAIR      61  32  33 SW5       30.29F
MOOSE LAKE     FAIR      61  32  33 SE3       30.25F
HINCKLEY       FAIR      61  34  36 S9        30.29F
CLOQUET        FAIR      61  23  23 S6        30.27F
MCGREGOR       FAIR      59  30  33 SW10      30.27F
$$
MNZ071>073-080-081-089-090-097-098-222100-
   Southwest Minnesota

CITY           SKY/WX    TMP DP  RH WIND       PRES   REMARKS
MONTEVIDEO     SUNNY     59  37  44 S10G17    30.27F
GRANITE FALLS  SUNNY     58  42  55 SE10      30.30F
CANBY          SUNNY     57  36  46 SE15      30.27F
MARSHALL       SUNNY     54  38  54 S15       30.28F
REDWOOD FALLS  SUNNY     58  38  47 S16G24    30.29F
OLIVIA         SUNNY     59  41  51 SE9       30.28F
PIPESTONE      SUNNY    N/A N/A N/A SE15G21   30.26F
WINDOM         SUNNY     54  30  40 E7        30.30F
WORTHINGTON      N/A     53  35  50 E13       30.28F
JACKSON        SUNNY     46  36  66 NE7       30.30F
TRACY          SUNNY     53  43  68 S10       30.29S
SLAYTON        SUNNY     49  37  62 SE13      30.30F
$$
MNZ065>067-074>077-082>085-091>093-222100-
   South Central Minnesota

CITY           SKY/WX    TMP DP  RH WIND       PRES   REMARKS
MANKATO        FAIR      58  39  49 E8        30.30F
NEW ULM        SUNNY     55  39  54 S9        30.30F
ST JAMES       SUNNY     50  37  62 SE5       30.32F
FAIRMONT       MOSUNNY   49  35  58 NE8       30.30F
GLENCOE        FAIR      61  37  41 SE6       30.28F
FARIBAULT      FAIR      59  39  47 E7        30.30F
OWATONNA       FAIR      59  41  51 E7        30.30F
WASECA         FAIR      55  37  50 E9        30.31F
ALBERT LEA     FAIR      55  28  35 E10       30.29F
$$
MNZ078>079-086>088-094>096-222100-
   Southeast Minnesota

CITY           SKY/WX    TMP DP  RH WIND       PRES   REMARKS
ROCHESTER      FAIR      58  36  43 E9        30.30F
RED WING       FAIR      63  23  22 SE7       30.29F
STANTON        FAIR      61  38  42 S8        30.29F
DODGE CENTER   FAIR      57  34  41 E6        30.30F
WINONA         FAIR      61  28  29 SE8       30.28F
AUSTIN         FAIR      55  36  47 E8        30.29F
PRESTON        FAIR      57  30  35 E8        30.30F
$$
ABBREVIATIONS USED IN REMARKS
   TC - TEMPERATURES IN CELSIUS
  WCI - WIND CHILL INDEX
   HX - HEAT INDEX
  VSB - VISIBILITY
$$




USA.gov is the U.S. government's official web portal to all federal, state and local government web resources and services.